Date String (YYYY-MM-DD hh:mm:ss) UTC,Instrument flags,Ambient pressure (hPa),Sample flow (lpm),Bypass flow (lpm),Sample temperature (°C),Ambient temperature (°C),ASC tube jacket temperature (°C),LED temperature (°C),Box temperature (°C),Sample RH (%),Span deviation,Mass concentration (μg/m³),Mass concentration (μg/m³),Mass concentration (μg/m³)
DateTimeUTC,F1_M11,P_M11,Q1_M11,Q2_M11,T1_M11,T2_M11,T3_M11,T4_M11,T5_M11,U1_M11,ZSPAN_M11,X0_M11,X2_M11,X1_M11
2022-06-17 17:00:00,,0827.7,5.01,0.00,32.6,28.2,00.0,40.4,32.3,35.0,0000.0,0022.00,0008.13,0004.87
2022-06-17 17:01:00,,0827.7,4.99,0.00,32.6,27.6,00.0,40.4,32.3,35.1,0000.0,0021.75,0008.19,0004.88
2022-06-17 17:02:00,,0827.7,5.01,0.00,32.7,27.4,00.0,40.3,32.3,34.7,0000.0,0021.03,0008.11,0004.88
2022-06-17 17:03:00,,0827.7,5.00,0.00,32.7,27.4,00.0,40.3,32.3,34.7,0000.0,0020.71,0008.07,0004.89
2022-06-17 17:04:00,,0827.7,5.00,0.00,32.6,27.5,00.0,40.3,32.2,34.8,0000.0,0019.60,0008.01,0004.91
2022-06-17 17:05:00,,0827.7,5.01,0.00,32.6,27.7,00.0,40.3,32.2,34.8,0000.0,0020.68,0007.90,0004.93
2022-06-17 17:06:00,,0827.7,5.00,0.00,32.5,27.8,00.0,40.3,32.2,34.9,0000.0,0021.60,0007.99,0004.96
2022-06-17 17:07:00,,0827.6,5.00,0.00,32.5,28.0,00.0,40.4,32.3,35.1,0000.0,0021.65,0008.13,0005.00
2022-06-17 17:08:00,,0827.7,5.00,0.00,32.6,28.2,00.0,40.4,32.4,34.9,0000.0,0021.08,0008.05,0005.00
2022-06-17 17:09:00,,0827.7,5.00,0.00,32.6,28.4,00.0,40.4,32.5,34.7,0000.0,0021.04,0008.01,0005.02
2022-06-17 17:10:00,,0827.7,5.00,0.00,32.6,28.4,00.0,40.4,32.4,34.7,0000.0,0021.39,0008.02,0005.03
2022-06-17 17:11:00,,0827.7,5.00,0.00,32.6,27.9,00.0,40.3,32.3,34.8,0000.0,0021.78,0008.08,0005.06
2022-06-17 17:12:00,,0827.7,4.99,0.00,32.4,27.5,00.0,40.3,32.2,34.9,0000.0,0021.94,0008.08,0005.11
2022-06-17 17:13:00,,0827.6,5.01,0.00,32.4,27.3,00.0,40.3,32.1,35.1,0000.0,0021.65,0008.09,0005.17
2022-06-17 17:14:00,,0827.6,5.01,0.00,32.5,27.4,00.0,40.2,32.3,35.0,0000.0,0021.59,0008.18,0005.23
2022-06-17 17:15:00,,0827.7,4.99,0.00,32.6,27.6,00.0,40.2,32.4,34.8,0000.0,0021.63,0008.25,0005.28
2022-06-17 17:16:00,,0827.7,5.00,0.00,32.7,27.7,00.0,40.2,32.3,34.6,0000.0,0020.08,0008.35,0005.35
2022-06-17 17:17:00,,0827.7,5.00,0.00,32.7,27.9,00.0,40.3,32.3,34.6,0000.0,0018.97,0008.42,0005.40
2022-06-17 17:18:00,,0827.7,5.02,0.00,32.6,28.1,00.0,40.3,32.4,34.7,0000.0,0018.32,0008.40,0005.42
2022-06-17 17:19:00,,0827.7,5.00,0.00,32.6,28.3,00.0,40.3,32.4,34.8,0000.0,0018.33,0008.45,0005.48
2022-06-17 17:20:00,,0827.6,4.99,0.00,32.5,28.2,00.0,40.3,32.3,34.9,0000.0,0018.49,0008.60,0005.55
2022-06-17 17:21:00,,0827.5,5.02,0.00,32.5,27.7,00.0,40.3,32.2,35.1,0000.0,0018.56,0008.66,0005.62
2022-06-17 17:22:00,,0827.6,4.99,0.00,32.6,27.4,00.0,40.2,32.3,34.9,0000.0,0018.19,0008.62,0005.66
2022-06-17 17:23:00,,0827.6,5.00,0.00,32.6,27.3,00.0,40.2,32.3,34.7,0000.0,0017.93,0008.60,0005.69
2022-06-17 17:24:00,,0827.6,5.00,0.00,32.6,27.4,00.0,40.2,32.2,34.8,0000.0,0018.22,0008.66,0005.72
2022-06-17 17:25:00,,0827.6,4.99,0.00,32.5,27.6,00.0,40.2,32.2,34.9,0000.0,0018.10,0008.64,0005.74
2022-06-17 17:26:00,,0827.5,5.00,0.00,32.5,27.8,00.0,40.2,32.2,35.1,0000.0,0018.83,0008.70,0005.78
2022-06-17 17:27:00,,0827.5,5.00,0.00,32.5,28.0,00.0,40.3,32.3,35.2,0000.0,0019.42,0008.68,0005.78
2022-06-17 17:28:00,,0827.5,4.99,0.00,32.8,28.2,00.0,40.3,32.5,34.8,0000.0,0019.93,0008.61,0005.75
2022-06-17 17:29:00,,0827.6,5.01,0.00,32.9,28.3,00.0,40.3,32.6,34.6,0000.0,0020.61,0008.59,0005.74
2022-06-17 17:30:00,,0827.5,5.00,0.00,33.0,28.3,00.0,40.3,32.5,34.3,0000.0,0029.50,0009.31,0005.75
2022-06-17 17:31:00,,0827.5,5.00,0.00,32.9,27.8,00.0,40.3,32.4,34.2,0000.0,0040.74,0010.21,0005.74
2022-06-17 17:32:00,,0827.5,5.00,0.00,32.8,27.4,00.0,40.3,32.2,34.2,0000.0,0046.83,0010.64,0005.69
2022-06-17 17:33:00,,0827.5,5.00,0.00,32.7,27.3,00.0,40.3,32.2,34.5,0000.0,0050.72,0010.94,0005.64
2022-06-17 17:34:00,,0827.5,5.00,0.00,32.6,27.4,00.0,40.3,32.1,34.8,0000.0,0052.56,0011.16,0005.62
2022-06-17 17:35:00,,0827.5,5.00,0.00,32.4,27.6,00.0,40.3,32.1,34.8,0001.4,0054.43,0011.26,0005.59
2022-06-17 17:36:00,,0827.5,5.00,0.00,32.4,27.7,00.0,40.3,32.1,35.0,0003.1,0056.71,0011.47,0005.54
2022-06-17 17:37:00,,0827.4,4.99,0.00,32.4,27.9,00.0,40.3,32.3,35.1,0003.3,0058.28,0011.60,0005.51
2022-06-17 17:38:00,,0827.6,5.00,0.00,32.5,28.1,00.0,40.3,32.4,34.7,0003.2,0058.97,0011.68,0005.48
2022-06-17 17:39:00,,0827.5,5.00,0.00,32.6,28.3,00.0,40.3,32.5,34.5,0003.2,0060.30,0011.76,0005.48
2022-06-17 17:40:00,,0827.4,5.00,0.00,32.6,28.3,00.0,40.3,32.4,34.4,0002.8,0060.76,0011.76,0005.46
2022-06-17 17:41:00,,0827.5,4.99,0.00,32.6,27.9,00.0,40.3,32.3,34.4,0002.6,0051.86,0011.01,0005.43
2022-06-17 17:42:00,,0827.5,5.01,0.00,32.5,27.4,00.0,40.2,32.1,34.6,0002.9,0041.67,0010.17,0005.40
2022-06-17 17:43:00,,0827.4,4.99,0.00,32.3,27.4,00.0,40.2,32.1,34.7,0002.6,0036.09,0009.75,0005.40
2022-06-17 17:44:00,,0827.4,4.99,0.00,32.2,27.4,00.0,40.2,32.1,34.8,0002.4,0032.64,0009.45,0005.42
2022-06-17 17:45:00,,0827.4,5.01,0.00,32.1,27.6,00.0,40.2,32.1,34.9,0002.4,0031.20,0009.32,0005.43
2022-06-17 17:46:00,,0827.4,4.99,0.00,32.0,27.8,00.0,40.2,32.1,35.1,0002.3,0029.75,0009.29,0005.45
2022-06-17 17:47:00,,0827.3,5.01,0.00,32.1,28.0,00.0,40.2,32.2,34.9,0002.7,0028.68,0009.22,0005.48
2022-06-17 17:48:00,,0827.4,5.01,0.00,32.2,28.2,00.0,40.2,32.4,34.4,0002.0,0026.59,0009.08,0005.53
2022-06-17 17:49:00,,0827.4,5.01,0.00,32.3,28.2,00.0,40.1,32.4,34.2,0002.2,0025.48,0009.07,0005.60
2022-06-17 17:50:00,,0827.3,5.01,0.00,32.3,27.8,00.0,40.1,32.2,34.0,0002.7,0023.80,0009.08,0005.67
2022-06-17 17:51:00,,0827.3,4.99,0.00,32.2,27.3,00.0,40.0,32.0,34.3,0002.9,0022.91,0009.11,0005.74
2022-06-17 17:52:00,,0827.2,4.99,0.00,32.1,27.2,00.0,40.0,32.0,34.6,0002.8,0022.90,0009.13,0005.80
2022-06-17 17:53:00,,0827.2,5.01,0.00,31.9,27.3,00.0,40.0,32.0,34.6,0002.3,0022.98,0009.10,0005.89
2022-06-17 17:54:00,,0827.2,5.01,0.00,31.8,27.5,00.0,40.0,32.0,34.8,0002.2,0022.77,0009.13,0005.97
2022-06-17 17:55:00,,0827.2,5.00,0.00,31.8,27.7,00.0,40.0,32.0,35.0,0002.5,0022.53,0009.15,0006.04
2022-06-17 17:56:00,,0827.1,5.00,0.00,31.8,27.9,00.0,40.0,32.1,35.1,0002.6,0022.29,0009.15,0006.12
2022-06-17 17:57:00,,0827.2,5.01,0.00,32.0,28.0,00.0,40.0,32.3,34.8,0002.6,0022.38,0009.22,0006.18
2022-06-17 17:58:00,,0827.2,4.99,0.00,32.1,28.2,00.0,40.0,32.4,34.4,0002.5,0021.61,0009.15,0006.24
2022-06-17 17:59:00,,0827.2,4.99,0.00,32.2,28.1,00.0,39.9,32.3,34.5,0002.1,0022.03,0009.20,0006.28
